Location: Unspecified
(0.0000°N, 0.0000°E)
Time: 14:55:24
(UTC+00:00)

A-11 Canister half - Visible Passes

Search period start: 01 August 2021 00:00
Search period end: 11 August 2021 00:00
Orbit: 1527 x 1682 km, 47.3° (Epoch: 01 August)

Date Brightness Start Highest point End Pass type
(mag) Time Alt. Az. Time Alt. Az. Time Alt. Az.
01 Aug 9.8 18:40:16 10° N 18:48:24 31° NE 18:55:13 14° ESE visible
01 Aug 9.3 20:44:08 10° NW 20:53:14 54° SW 20:53:34 53° SW visible
02 Aug 11.2 05:30:31 10° SSE 05:34:09 12° SE 05:37:47 10° ESE visible
02 Aug 9.9 18:18:48 10° N 18:26:43 29° NE 18:34:28 10° ESE visible
02 Aug 9.3 20:22:23 10° NW 20:31:35 58° SW 20:33:37 49° S visible
03 Aug 11.2 05:09:55 10° SSE 05:12:23 11° SE 05:14:51 10° ESE visible
03 Aug 9.2 20:00:38 10° NW 20:09:56 62° SW 20:13:43 38° SSE visible
04 Aug 9.2 19:38:54 10° NW 19:48:18 67° SW 19:53:51 27° SSE visible
04 Aug 11.1 21:52:02 10° SW 21:52:12 10° SW 21:52:12 10° SW visible
05 Aug 9.1 19:17:10 10° NW 19:26:39 71° SW 19:34:01 18° SSE visible
05 Aug 11.0 21:28:56 10° WSW 21:31:58 12° SW 21:32:21 12° SW visible
06 Aug 9.1 18:55:28 10° NW 19:05:01 76° SW 19:14:12 11° SE visible
06 Aug 10.9 21:06:18 10° WSW 21:10:14 13° SW 21:12:33 12° SSW visible
07 Aug 10.0 05:41:52 10° SSW 05:51:14 49° SE 06:00:48 10° ENE visible
07 Aug 9.1 18:33:46 10° NW 18:43:22 82° SW 18:52:44 10° SE visible
07 Aug 10.9 20:43:53 10° WSW 20:48:31 15° SW 20:52:44 11° SSW visible
08 Aug 10.0 05:20:20 10° SSW 05:29:34 46° SE 05:38:58 10° ENE visible
08 Aug 10.9 20:21:34 10° W 20:26:48 16° SW 20:32:02 10° SSW visible
09 Aug 10.1 04:58:48 10° SSW 05:07:52 43° SE 05:17:08 10° ENE visible
09 Aug 10.9 19:59:21 10° W 20:05:06 18° SW 20:10:50 10° S visible
10 Aug 10.1 04:37:18 10° SSW 04:46:11 40° SE 04:55:16 10° ENE visible
10 Aug 10.9 19:37:12 10° W 19:43:24 19° SW 19:49:34 10° S visible
